Location: Althorst
(53.6379°N, 10.7715°E)
Time: 20:17:03
(UTC+00:00)

Cosmos 2237 Rocket - Pass Details

Date: 10 December 2019
Orbit: 836 x 849 km, 71.0° (Epoch: 26 January)

Event Time Altitude Azimuth Distance (km) Brightness Sun altitude
Rises 17:32:14 0° 215° (SW) 3,404 6.0 -21.6°
Reaches altitude 10° 17:34:41 10° 217° (SW) 2,471 5.2 -21.9°
Maximum altitude 17:40:22 76° 304° (WNW) 878 2.3 -22.7°
Enters shadow 17:43:05 33° 25° (NNE) 1,410 3.1 -23.1°
